This is the latest recevied weather packets stored in our database for station/object KV9E. If no packets are shown the sender has not sent any weather packets the latest 10 day(s).
| Time | Temp. | Humidity | Pressure | Rain* | Wind** | Luminosity | Snow |
|---|---|---|---|---|---|---|---|
| 1778453912 | 24.44° C | 50% | 1015.5 hPa | 0 mm | - | 138 W/m² | - |
| 1778453607 | 24.44° C | 51% | 1015.4 hPa | 0 mm | - | 163 W/m² | - |
| 1778453303 | 25.56° C | 50% | 1015.4 hPa | 0 mm | - | 180 W/m² | - |
| 1778453000 | 25° C | 49% | 1015.4 hPa | 0 mm | - | 193 W/m² | - |
| 1778452697 | 25° C | 52% | 1015.6 hPa | 0 mm | - | 191 W/m² | - |
| 1778452394 | 25° C | 52% | 1015.4 hPa | 0 mm | - | 198 W/m² | - |
| 1778452092 | 24.44° C | 53% | 1015.2 hPa | 0 mm | - | 198 W/m² | - |
| 1778451788 | 24.44° C | 53% | 1015.6 hPa | 0 mm | - | 139 W/m² | - |
| 1778451483 | 24.44° C | 50% | 1015.7 hPa | 0 mm | - | 180 W/m² | - |
| 1778451180 | 23.89° C | 51% | 1015.8 hPa | 0 mm | - | 254 W/m² | - |
| 1778450877 | 25° C | 51% | 1015.7 hPa | 0 mm | - | 101 W/m² | - |
| 1778450573 | 24.44° C | 49% | 1015.4 hPa | 0 mm | - | 294 W/m² | - |
| 1778450269 | 24.44° C | 52% | 1015.5 hPa | 0 mm | - | 185 W/m² | - |
| 1778449967 | 25° C | 54% | 1015.5 hPa | 0 mm | - | 130 W/m² | - |
| 1778449664 | 25.56° C | 49% | 1015.6 hPa | 0 mm | - | 177 W/m² | - |
| 1778449361 | 25° C | 52% | 1015.5 hPa | 0 mm | - | 253 W/m² | - |
| 1778449058 | 25° C | 49% | 1015.7 hPa | 0 mm | - | 172 W/m² | - |
| 1778448754 | 23.89° C | 53% | 1015.7 hPa | 0 mm | - | 325 W/m² | - |
| 1778448451 | 23.33° C | 54% | 1015.5 hPa | 0 mm | - | 325 W/m² | - |
| 1778448148 | 23.89° C | 51% | 1015.7 hPa | 0 mm | - | 111 W/m² | - |
| 1778447845 | 23.33° C | 54% | 1015.6 hPa | 0 mm | - | 375 W/m² | - |
| 1778447540 | 23.89° C | 55% | 1015.5 hPa | 0 mm | - | 94 W/m² | - |
| 1778447236 | 24.44° C | 58% | 1015.7 hPa | 0 mm | - | 95 W/m² | - |
| 1778446931 | 25.56° C | 53% | 1015.4 hPa | 0 mm | - | 276 W/m² | - |
| 1778446626 | 24.44° C | 51% | 1015.7 hPa | 0 mm | - | 279 W/m² | - |
* Rain latest hour (hover to see other rain measurements)
** Current wind speed in m/s (hover to see current wind gust speed)